Hauptseite
METAR-TAF:

METAR-TAF

Flughäfen :

Plzeň, Tschechien

Breite: 49-40-31N, Länge: 13-16-29E, Höhe: 362 m

Beobachtung

Neuester Wetterbericht von vor 54 Minuten, um 18:00 UTC
Wind 7 kt aus Südwest
Temperatur 4°C
Luftfeuchtigkeit 75%
Luftdruck 1019 hPa
Sichtweite 10 km oder mehr
Leicht bewölkt in der Höhe von 7800 ft

METAR: LKLN 181800Z AUTO 23007KT 9999 FEW078 04/00 Q1019

Zeit: 19:54 (18:54 UTC)


TAF: fehlend

Wetterbeobachtungen und Prognosen von mehr als 4000 Flughäfen (METAR und TAF Bericht).

Die verfügbaren Stationen werden durch gelbe und rote Markierungen auf der Karte dargestellt.

Führen Sie die Maus auf sie, um den Namen der Station zu sehen.

Darauf klicken, um die Beobachtung von Wetterbeobachtungen und Prognosen zu sehen.

Um die Karte zu ändern : klicken Sie auf den grünen Tasten mit einem schwarzen Kreuz Zum Vergrößern, auf den grünen Button mit einem Gedankenstrich zu verkleinern, oder auf die grünen Pfeile für benachbarte Karten.


METAR-TAF: